Home   Weather   Conroe   Past weeks
Flag for USA

Past Weather in Conroe, Texas, USA — Yesterday and Last 2 Weeks

Now
76 °F

Scattered clouds.


Feels Like: 77 °F
Forecast: 89 / 77 °F
Wind: 7 mph from South

Location: Montgomery County Airport

Current Time: Jun 24, 2019 at 12:42:28 pm

Latest Report: Jun 24, 2019 at 12:06 pm


Visibility: 10 mi

Pressure: 29.97 "Hg

Humidity: 80%

Dew Point: 69 °F

Location of ConroeLocation

Past Weather in Conroe — Graph

°F

Conroe Temperature Yesterday

Maximum temperature yesterday: 93 °F (at 12:53 pm)
Minimum temperature yesterday: 81 °F (at 6:30 am)
Average temperature yesterday: 85 °F

High & Low Weather Summary for the Past Weeks

 TemperatureHumidityPressure
High96 °F (Jun 15, 2:53 pm)97% (Jun 16, 9:04 pm)30.14 "Hg (Jun 16, 9:04 pm)
Low66 °F (Jun 12, 6:53 am)30% (Jun 13, 2:53 pm)29.72 "Hg (Jun 19, 7:53 pm)
Average81 °F75%29.93 "Hg
* Reported Jun 9 10:53 am — Jun 24 10:53 am, Conroe. Weather by CustomWeather, © 2019

Note: Actual official high and low records may vary slightly from our data, if they occured in-between our weather recording intervals... More about our weather records

Advertising

Conroe Weather History for the Previous 24 Hours

Scroll right to see more
 ConditionsComfort  
Time TempWeatherWind HumidityBarometerVisibility
10:53 am
Mon, Jun 24
73 °FPassing clouds.9 mph84%29.95 "Hg10 mi
10:23 am71 °FPassing clouds.7 mph90%29.94 "Hg10 mi
9:53 am69 °FPassing clouds.7 mph90%29.94 "Hg10 mi
8:53 am68 °FLight rain. Broken clouds.5 mph93%29.96 "Hg10 mi
7:53 am68 °FLight rain. Broken clouds.7 mph93%29.98 "Hg10 mi
7:13 am68 °FHeavy rain. Fog.6 mph93%30.03 "Hg5 mi
6:53 am68 °FThundershowers. Mostly cloudy.8 mph93%30.00 "Hg10 mi
6:38 am68 °FLight rain. Partly sunny.7 mph93%30.02 "Hg9 mi
6:12 am68 °FLight rain. Partly cloudy.6 mph93%29.98 "Hg10 mi
5:53 am68 °FThundershowers. Mostly cloudy.8 mph93%29.96 "Hg8 mi
5:38 am68 °FStrong thunderstorms. Fog.6 mph93%29.96 "Hg4 mi
5:07 am68 °FThunderstorms. Mostly cloudy.7 mph93%29.94 "Hg7 mi
4:59 am68 °FThundershowers. Fog.15 mph93%29.94 "Hg5 mi
4:28 am68 °FStrong thunderstorms. Fog.15 mph93%29.94 "Hg1 mi
4:18 am69 °FStrong thunderstorms. Fog.8 mph90%29.97 "Hg2 mi
3:53 am81 °FThunderstorms. Fog.14 mph91%29.86 "Hg6 mi
3:33 am81 °FLight rain. Fog.3 mph91%29.88 "Hg6 mi
3:18 am82 °FThundershowers. Mostly cloudy.5 mph85%29.87 "Hg8 mi
2:53 am83 °FLight rain. Mostly cloudy.5 mph82%29.85 "Hg9 mi
1:53 am83 °FMostly cloudy.No wind85%29.87 "Hg9 mi
12:53 am83 °FMostly cloudy.7 mph85%29.85 "Hg10 mi
12:35 am83 °FMostly cloudy.10 mph85%29.85 "Hg10 mi
11:53 pm
Sun, Jun 23
83 °FMostly cloudy.12 mph85%29.84 "Hg10 mi
11:21 pm83 °FMostly cloudy.8 mph85%29.85 "Hg10 mi
10:53 pm83 °FOvercast.10 mph85%29.83 "Hg10 mi
9:53 pm83 °FPassing clouds.12 mph82%29.80 "Hg10 mi
8:53 pm83 °FPassing clouds.8 mph85%29.80 "Hg10 mi
7:53 pm85 °FPartly sunny.12 mph83%29.79 "Hg10 mi
6:53 pm84 °FBroken clouds.8 mph88%29.79 "Hg10 mi
6:33 pm90 °FThunderstorms. Scattered clouds.16 mph70%29.80 "Hg10 mi
5:53 pm91 °FPassing clouds.10 mph70%29.80 "Hg10 mi
5:12 pm88 °FPartly sunny.5 mph80%29.83 "Hg10 mi
4:53 pm87 °FThundershowers. Passing clouds.5 mph85%29.82 "Hg10 mi
4:28 pm84 °FLight rain. Partly sunny.5 mph91%29.84 "Hg10 mi
4:14 pm83 °FThundershowers. Fog.3 mph94%29.85 "Hg6 mi
3:53 pm83 °FThunderstorms. Broken clouds.No wind88%29.83 "Hg7 mi
3:26 pm82 °FThundershowers. Broken clouds.No wind88%29.85 "Hg10 mi
3:00 pm82 °FThunderstorms. Partly sunny.6 mph85%29.87 "Hg6 mi
2:30 pm88 °FThunderstorms. Broken clouds.7 mph78%29.87 "Hg9 mi
1:53 pm90 °FScattered clouds.13 mph66%29.87 "Hg10 mi
1:15 pm90 °FLight rain. Partly sunny.17 mph63%29.89 "Hg10 mi
12:53 pm93 °FThundershowers. Passing clouds.13 mph58%29.89 "Hg10 mi
Weather by CustomWeather, © 2019

See weather overview